Regional Weather Roundup
Issued by NWS

Home | Current Version | Previous Version | Text Only | Print | Product List | Glossary Off
Versions: 1 2 3 4 5 6 7 8 9 10 11 12 13 14 15 16 17 18 19 20 21 22 23 24 25 26 27 28 29 30 31 32 33 34 35 36 37 38 39 40 41 42 43 44 45 46 47 48 49 50

000
ASUS45 KABQ 280410
RWRNM
WEATHER ROUNDUP FOR NEW MEXICO
NATIONAL WEATHER SERVICE ALBUQUERQUE NM
900 PM MST THU NOV 27 2014

NOTE: "FAIR" MEANS FEW OR NO CLOUDS BELOW 12,000 FEET AGL WITH NO
       SIGNIFICANT WEATHER OR OBSTRUCTIONS TO VISION.

      THIS PRODUCT IS RELEASED AS TWO VERSIONS.  ONE VERSION NEAR
      THE TOP OF THE HOUR CONTAINING PRELIMINARY DATA FROM ALBUQUERQUE
      AND OTHER STATIONS.  A FINAL VERSION WITH ADDITIONAL DATA IS
      ISSUED ABOUT 10 MINUTES AFTER THE HOUR.

NMZ501-503-504-510>518-280500-
NORTHWEST PLATEAU/NORTHCENTRAL MOUNTAINS

CITY           SKY/WX    TMP DP  RH WIND       PRES   REMARKS
FARMINGTON     CLEAR     32  19  58 NE8       30.33F WCI  25
LOS ALAMOS     PTCLDY    49  20  30 CALM      30.38F
SANTA FE       PTCLDY    31  17  56 NE5       30.34F WCI  26
TAOS           MOCLDY    34  25  69 CALM      30.38S
ANGEL FIRE     FAIR      22  15  72 CALM      30.40R

$$
NMZ402-403-502-505>509-280500-
WESTCENTRAL MOUNTAINS/SOUTHWEST MOUNTAINS

CITY           SKY/WX    TMP DP  RH WIND       PRES   REMARKS
GALLUP         MOCLDY    31   8  38 CALM      30.37S
GRANTS         CLEAR     28   7  40 NW3       30.40S
SILVER CITY    CLEAR     39  19  45 N9        30.36F WCI  33

$$
NMZ407-409-411-412-280500-
SOUTHERN DESERTS

CITY           SKY/WX    TMP DP  RH WIND       PRES   REMARKS
LORDSBURG      FAIR      43  21  42 S9        30.30S
DEMING         CLEAR     42  20  41 N3        30.31S
LAS CRUCES     CLEAR     42  19  39 NW3       30.33S
HOLLOMAN AFB   CLEAR     40  21  47 E8        30.30S WCI  34
ALAMOGORDO     CLEAR     43  19  39 E3        30.31F
T OR C         CLEAR     46  20  35 NW8       30.32S

$$
NMZ519>523-280500-
CENTRAL VALLEYS/CENTRAL HIGHLANDS

CITY           SKY/WX    TMP DP  RH WIND       PRES   REMARKS
ALBUQUERQUE    PTCLDY    40  19  43 SE3       30.34S
DOUBLE EAGLE   CLEAR     34  16  47 SW8       30.35S WCI  27
MORIARTY ARPT  FAIR      28  20  72 CALM      30.37S
CLINES CORNERS CLEAR     38  18  44 W9        30.35S WCI  31
BELEN          FAIR      35  14  41 CALM      30.33F
SOCORRO        FAIR      42  19  39 CALM      30.33S

$$
NMZ524>526-539-540-280500-
SOUTHCENTRAL MOUNTAINS

CITY           SKY/WX    TMP DP  RH WIND       PRES   REMARKS
RUIDOSO        CLEAR     39  19  45 W8        30.39S WCI  34

$$
NMZ527>531-280500-
NORTHEAST HIGHLANDS/NORTHEAST PLAINS

CITY           SKY/WX    TMP DP  RH WIND       PRES   REMARKS
LAS VEGAS      MOCLDY    48   8  19 S8        30.30F
RATON          CLOUDY    37  22  54 NE3       30.25F
CLAYTON        CLOUDY    50  26  39 W14       30.16F

$$
NMZ532>537-280500-
EASTCENTRAL PLAINS

CITY           SKY/WX    TMP DP  RH WIND       PRES   REMARKS
TUCUMCARI      CLEAR     48  28  46 SW8       30.19F
CANNON AFB     PTCLDY    41  26  54 SW6       30.26S
CLOVIS AIRPORT PTCLDY    41  25  52 SW12      30.25F

$$
NMZ028-029-538-280500-
SOUTHEAST PLAINS

CITY           SKY/WX    TMP DP  RH WIND       PRES   REMARKS
ROSWELL        CLEAR     38  29  70 SW6       30.27F WCI  33
CARLSBAD       CLEAR     46  30  53 S10       30.27F
HOBBS          CLEAR     41  28  60 CALM      30.30F


$$


USA.gov is the U.S. government's official web portal to all federal, state and local government web resources and services.